Flag for Turkmenistan Weather past 2 weeks in Ashgabat, Turkmenistan

Now
43 °F

Fog.


Feels Like: 39 °F
Forecast: 40 / 58 °F
Wind: 6 mph from East

Location: Ashgabat

Current Time: Dec 19, 2014 at 3:18:43 PM

Latest Report: Dec 19, 2014 at 3:00 PM


Visibility: 3 mi

Pressure: 30.07 "Hg

Humidity: 87%

Dew point: 39 °F

Location of AshgabatLocation

Historic Weather in Ashgabat — Graph

°F

Ashgabat temperature yesterday

Maximum temperature yesterday: 45 °F (at 2:00 PM)
Minimum temperature yesterday: 39 °F (at 12:00 AM)
Average temperature yesterday: 40 °F

Past Weeks' High & Low Weather Summary

 TemperatureHumidityPressure
High57 °F (Dec 13, 3:00 PM)100% (Dec 5, 5:00 AM)30.83 "Hg (Dec 5, 5:00 AM)
Low25 °F (Dec 8, 8:00 AM)24% (Dec 13, 2:00 PM)30.07 "Hg (Dec 19, 1:30 PM)
Average38 °F78%30.36 "Hg
* Reported Dec 4 2:00 PM — Dec 19 2:00 PM, Ashgabat, Weather by CustomWeather, © 2014

Note: Actual official high and low records may vary slightly from our data, if they occured in-between our weather recording intervals... More about our weather records

Advertising

Ashgabat weather history for previous 24 hours

 ConditionsComfort  
Time TempWeatherWind HumidityBarometerVisibility
2:00 PM
Dec 19
39 °FFog.8 mph100%30.07 "Hg2 mi
1:30 PM39 °FFog.6 mph100%30.07 "Hg2 mi
1:00 PM37 °FFog.3 mph100%30.09 "Hg1 mi
12:00 PM36 °FFog.3 mph100%30.12 "Hg0 mi
11:30 AM36 °FFog.6 mph100%30.12 "Hg0 mi
11:00 AM34 °FFog.3 mph100%30.15 "Hg0 mi
10:30 AM34 °FFog.6 mph93%30.12 "Hg0 mi
10:00 AM32 °FFog.3 mph100%30.12 "Hg0 mi
9:30 AM32 °FFog.6 mph100%30.12 "Hg0 mi
9:00 AM32 °FFog.6 mph100%30.15 "Hg0 mi
8:30 AM34 °FFog.3 mph93%30.15 "Hg0 mi
8:00 AM34 °FFog.3 mph93%30.15 "Hg0 mi
7:30 AM34 °FFog.6 mph100%30.15 "Hg0 mi
7:00 AM34 °FFog.3 mph100%30.12 "Hg0 mi
6:30 AM34 °FFog.6 mph100%30.15 "Hg0 mi
6:00 AM34 °FFog.6 mph93%30.15 "Hg0 mi
5:30 AM34 °FFog.6 mph100%30.15 "Hg1 mi
5:00 AM34 °FFog.3 mph100%30.15 "Hg1 mi
4:30 AM36 °FFog.6 mph93%30.15 "Hg1 mi
4:00 AM36 °FFog.1 mph93%30.15 "Hg1 mi
3:30 AM36 °FFog.6 mph93%30.15 "Hg2 mi
3:00 AM36 °FFog.3 mph100%30.15 "Hg2 mi
2:00 AM39 °FFog.3 mph87%30.18 "Hg3 mi
1:30 AM39 °FFog.3 mph87%30.18 "Hg3 mi
1:00 AM39 °FFog.3 mph87%30.18 "Hg3 mi
12:00 AM39 °FPassing clouds.6 mph87%30.18 "Hg4 mi
11:00 PM
Dec 18
41 °FOvercast.6 mph87%30.21 "Hg6 mi
10:00 PM43 °FOvercast.6 mph81%30.21 "Hg6 mi
9:00 PM43 °FOvercast.3 mph81%30.21 "Hg6 mi
8:00 PM41 °FOvercast.3 mph87%30.24 "Hg6 mi
7:00 PM41 °FOvercast.6 mph87%30.24 "HgN/A
6:00 PM43 °FPartly sunny.8 mph81%30.24 "HgN/A
5:00 PM43 °FPartly sunny.8 mph81%30.24 "HgN/A
4:00 PM45 °FPartly sunny.8 mph76%30.24 "HgN/A
3:00 PM45 °FPartly sunny.8 mph81%30.24 "HgN/A
Weather by CustomWeather, © 2014

See weather overviewHow to use our weather pages